FW7194 Weather Reports


Display with metric or nautical units.
time (UTC)temp
F
wind
direction
speed
MPH
gust
MPH
rain 1hr
in
rain 24hr
in
rain mn
in
humidity
%
barometer
mb
20260901014643 79 227 0.0 0.0 0.00 0.00 0.00 90 1019.0
20260901014139 79 228 0.0 0.0 0.00 0.00 0.00 90 1019.0
20260901013635 79 231 0.0 0.0 0.00 0.00 0.00 90 1018.8
20260901013131 79 239 0.0 0.0 0.00 0.00 0.00 90 1018.8
20260901012630 79 219 0.0 0.0 0.00 0.00 0.00 89 1018.9
20260901012125 79 218 0.0 0.0 0.00 0.00 0.00 89 1018.8
20260901011622 79 204 0.0 0.0 0.00 0.00 0.00 89 1018.7
20260901011120 79 192 0.0 0.0 0.00 0.00 0.00 89 1018.7
20260901010615 80 197 0.0 0.0 0.00 0.00 0.00 89 1019.0
20260901010114 80 177 0.0 1.0 0.00 0.00 0.00 89 1018.8
20260901005609 80 161 0.0 1.0 0.00 0.00 0.00 88 1018.7
20260901005104 80 165 1.0 1.0 0.00 0.00 0.00 88 1018.4
20260901004603 80 156 1.0 2.0 0.00 0.00 0.00 88 1018.5
20260901004059 80 155 1.0 2.0 0.00 0.00 0.00 88 1018.5
20260901003554 80 136 2.0 2.0 0.00 0.00 0.00 88 1018.4
20260901003052 80 159 0.0 3.0 0.00 0.00 0.00 88 1018.5
20260901002551 80 114 1.0 2.0 0.00 0.00 0.00 88 1018.4
20260901002047 80 125 0.0 2.0 0.00 0.00 0.00 87 1018.4
20260901001542 81 140 1.0 1.0 0.00 0.00 0.00 87 1018.3
20260901001037 81 126 1.0 5.0 0.00 0.00 0.00 87 1018.4
20260901000532 81 157 0.0 3.0 0.00 0.00 0.00 87 1018.4
20260901000028 81 132 1.0 3.0 0.00 0.00 0.00 87 1018.5
20260831235521 81 168 2.0 3.0 0.00 0.00 0.00 87 1018.3
20260831235017 81 141 2.0 5.0 0.00 0.00 0.00 87 1018.2
20260831234516 81 115 3.0 6.0 0.00 0.00 0.00 87 1018.3
20260831234013 81 105 3.0 5.0 0.00 0.00 0.00 87 1018.3
20260831233507 82 109 4.0 7.0 0.00 0.00 0.00 87 1018.3
20260831233002 82 203 1.0 3.0 0.00 0.00 0.00 86 1018.2
20260831232458 82 128 3.0 5.0 0.00 0.00 0.00 86 1018.4
20260831231953 82 134 3.0 6.0 0.00 0.00 0.00 86 1018.3
20260831231450 82 146 2.0 5.0 0.00 0.00 0.00 86 1018.2
20260831230946 82 169 3.0 5.0 0.00 0.00 0.00 86 1018.4
20260831230441 82 94 5.0 6.0 0.00 0.00 0.00 86 1018.2
20260831225940 82 109 2.0 3.0 0.00 0.00 0.00 87 1018.5
20260831225437 82 95 3.0 3.0 0.00 0.00 0.00 87 1018.2
20260831224932 83 113 2.0 5.0 0.00 0.00 0.00 87 1018.2
20260831224431 83 157 1.0 5.0 0.00 0.00 0.00 87 1018.4
20260831223926 83 162 2.0 6.0 0.00 0.00 0.00 87 1018.3
20260831223421 83 128 3.0 6.0 0.00 0.00 0.00 87 1018.4
20260831222918 83 205 2.0 5.0 0.00 0.00 0.00 87 1018.3
20260831222414 83 128 6.0 7.0 0.00 0.00 0.00 87 1018.4
20260831221908 83 203 0.0 6.0 0.00 0.00 0.00 87 1018.5
20260831221404 83 213 1.0 6.0 0.00 0.00 0.00 87 1018.2
20260831220859 83 176 2.0 7.0 0.00 0.00 0.00 87 1018.5
20260831220355 83 174 4.0 8.0 0.00 0.00 0.00 87 1018.3
20260831215850 83 204 1.0 5.0 0.00 0.00 0.00 87 1018.3
20260831215345 83 170 4.0 7.0 0.00 0.00 0.00 87 1018.3
20260831214842 83 135 3.0 6.0 0.00 0.00 0.00 87 1018.3
20260831214340 83 99 3.0 6.0 0.00 0.00 0.00 87 1018.2
20260831213839 83 159 5.0 8.0 0.00 0.00 0.00 87 1018.2
20260831213336 83 121 3.0 6.0 0.00 0.00 0.00 87 1018.3
20260831212831 83 129 3.0 5.0 0.00 0.00 0.00 87 1018.3
20260831212328 83 170 3.0 6.0 0.00 0.00 0.00 87 1018.2
20260831211826 83 173 1.0 2.0 0.00 0.00 0.00 87 1018.1
20260831211322 83 140 4.0 6.0 0.00 0.00 0.00 87 1018.2
20260831210821 83 220 1.0 3.0 0.00 0.00 0.00 87 1018.2
20260831210317 83 99 3.0 3.0 0.00 0.00 0.00 86 1018.1
20260831205812 83 153 4.0 5.0 0.00 0.00 0.00 86 1018.2
20260831205308 83 107 2.0 3.0 0.00 0.00 0.00 86 1018.1
20260831204807 83 158 2.0 3.0 0.00 0.00 0.00 87 1018.0
20260831204307 83 159 1.0 2.0 0.00 0.00 0.00 86 1018.1
20260831203806 84 146 0.0 2.0 0.00 0.00 0.00 87 1018.0
20260831203301 84 133 3.0 5.0 0.00 0.00 0.00 87 1018.1
20260831202759 84 189 3.0 3.0 0.00 0.00 0.00 87 1018.4
20260831202255 83 113 2.0 5.0 0.00 0.00 0.00 87 1018.3
20260831201754 83 204 0.0 5.0 0.00 0.00 0.00 87 1018.2
20260831201253 83 133 3.0 5.0 0.00 0.00 0.00 87 1018.3
20260831200749 83 118 0.0 2.0 0.00 0.00 0.00 87 1018.2
20260831200244 83 210 2.0 2.0 0.00 0.00 0.00 87 1018.1
20260831195739 83 210 0.0 3.0 0.00 0.00 0.00 86 1018.1
20260831195236 83 82 1.0 2.0 0.00 0.00 0.00 86 1018.4
20260831194730 83 197 1.0 3.0 0.00 0.00 0.00 86 1018.0
20260831194226 83 109 3.0 3.0 0.00 0.00 0.00 86 1018.2
20260831193719 83 216 2.0 5.0 0.00 0.00 0.00 86 1018.2
20260831193214 83 176 5.0 6.0 0.00 0.00 0.00 86 1018.3
20260831192710 83 130 3.0 7.0 0.00 0.00 0.00 86 1018.5
20260831192205 83 112 1.0 5.0 0.00 0.00 0.00 86 1018.5
20260831191700 83 122 4.0 6.0 0.00 0.00 0.00 86 1018.8
20260831191156 84 143 3.0 5.0 0.00 0.00 0.00 86 1018.7
20260831190651 84 184 3.0 5.0 0.00 0.00 0.00 86 1019.0
20260831190151 84 133 3.0 3.0 0.00 0.00 0.00 85 1019.1
20260831185646 84 115 4.0 7.0 0.00 0.00 0.00 85 1019.0
20260831185142 84 90 4.0 5.0 0.00 0.00 0.00 85 1019.3
20260831184641 84 185 1.0 2.0 0.00 0.00 0.00 85 1019.1
20260831184137 84 146 4.0 7.0 0.00 0.00 0.00 85 1019.3
20260831183636 84 214 0.0 5.0 0.00 0.00 0.00 85 1019.3
20260831183136 84 183 1.0 6.0 0.00 0.00 0.00 84 1019.3
20260831182635 84 159 3.0 5.0 0.00 0.00 0.00 84 1019.4
20260831182131 85 108 3.0 8.0 0.00 0.00 0.00 84 1019.5
20260831181631 84 132 1.0 2.0 0.00 0.00 0.00 84 1019.6
20260831181131 84 92 4.0 5.0 0.00 0.00 0.00 85 1019.6
20260831180627 84 164 1.0 2.0 0.00 0.00 0.00 85 1019.4
20260831180122 84 146 2.0 3.0 0.00 0.00 0.00 85 1019.8
20260831175616 84 105 5.0 7.0 0.00 0.00 0.00 85 1019.9
20260831175113 84 191 2.0 3.0 0.00 0.00 0.00 85 1020.0
20260831174608 84 196 1.0 3.0 0.00 0.00 0.00 86 1020.0
20260831174108 84 211 2.0 2.0 0.00 0.00 0.00 85 1020.0
20260831173606 83 208 0.0 2.0 0.00 0.00 0.00 85 1020.0
20260831173103 83 84 1.0 2.0 0.00 0.00 0.00 85 1020.1
20260831172602 83 147 0.0 1.0 0.00 0.00 0.00 85 1020.2
20260831172057 83 186 1.0 1.0 0.00 0.00 0.00 85 1020.4
20260831171553 83 212 0.0 1.0 0.00 0.00 0.00 85 1020.5
20260831171050 83 158 0.0 1.0 0.00 0.00 0.00 84 1020.4
20260831170545 83 146 4.0 6.0 0.00 0.00 0.00 84 1020.6
20260831170043 83 125 3.0 5.0 0.00 0.00 0.00 84 1020.8
20260831165543 83 146 3.0 5.0 0.00 0.00 0.00 84 1020.8
20260831165040 83 140 1.0 5.0 0.00 0.00 0.00 84 1021.0
20260831164536 83 150 1.0 5.0 0.00 0.00 0.00 84 1020.8
20260831164031 83 144 3.0 5.0 0.00 0.00 0.00 83 1020.8
20260831163520 83 137 4.0 6.0 0.00 0.00 0.00 83 1020.9
20260831163016 83 110 2.0 3.0 0.00 0.00 0.00 83 1020.8
20260831162514 83 129 2.0 5.0 0.00 0.00 0.00 83 1020.9
20260831162012 83 122 1.0 7.0 0.00 0.00 0.00 83 1020.9
20260831161509 84 116 5.0 7.0 0.00 0.00 0.00 83 1020.8
20260831161004 84 139 2.0 7.0 0.00 0.00 0.00 83 1021.0
20260831160459 84 154 2.0 3.0 0.00 0.00 0.00 83 1020.8
20260831155953 84 153 1.0 2.0 0.00 0.00 0.00 83 1020.8
20260831155448 84 127 2.0 3.0 0.00 0.00 0.00 82 1020.9
20260831154944 84 115 3.0 6.0 0.00 0.00 0.00 82 1020.9
20260831154440 84 168 2.0 2.0 0.00 0.00 0.00 82 1020.7
20260831153939 84 151 1.0 3.0 0.00 0.00 0.00 82 1020.8
20260831153434 84 185 2.0 3.0 0.00 0.00 0.00 82 1020.7
20260831152931 84 139 3.0 5.0 0.00 0.00 0.00 81 1020.7
20260831152426 85 191 0.0 1.0 0.00 0.00 0.00 81 1020.5
20260831151921 85 90 1.0 2.0 0.00 0.00 0.00 81 1020.6
20260831151420 85 117 0.0 6.0 0.00 0.00 0.00 80 1020.6
20260831150916 85 131 1.0 5.0 0.00 0.00 0.00 80 1020.4
20260831150411 85 21 2.0 5.0 0.00 0.00 0.00 80 1020.2
20260831145910 85 59 2.0 2.0 0.00 0.00 0.00 81 1020.3
20260831145406 86 166 0.0 1.0 0.00 0.00 0.00 80 1020.3
20260831144902 86 58 4.0 7.0 0.00 0.00 0.00 80 1020.2
20260831144358 86 139 1.0 2.0 0.00 0.00 0.00 80 1020.2
20260831143852 86 125 1.0 2.0 0.00 0.00 0.00 80 1020.1
20260831143347 86 133 1.0 2.0 0.00 0.00 0.00 81 1020.2
20260831142843 86 139 2.0 6.0 0.00 0.00 0.00 81 1020.1
20260831142338 86 124 2.0 2.0 0.00 0.00 0.00 82 1020.1
20260831141838 85 107 0.0 0.0 0.00 0.00 0.00 82 1020.1
20260831141332 85 105 1.0 3.0 0.00 0.00 0.00 83 1020.0
20260831140827 85 115 0.0 1.0 0.00 0.00 0.00 83 1019.9
20260831140322 85 144 0.0 2.0 0.00 0.00 0.00 84 1019.9
20260831135820 84 186 1.0 1.0 0.00 0.00 0.00 84 1019.7
20260831135315 84 168 0.0 0.0 0.00 0.00 0.00 85 1019.8
20260831134811 84 110 4.0 5.0 0.00 0.00 0.00 85 1020.1
20260831134307 83 132 0.0 2.0 0.00 0.00 0.00 86 1019.8
20260831133806 83 89 2.0 3.0 0.00 0.00 0.00 86 1019.9
20260831133301 83 137 0.0 3.0 0.00 0.00 0.00 87 1019.9
20260831132756 83 37 6.0 7.0 0.00 0.00 0.00 88 1019.8
20260831132251 82 25 2.0 3.0 0.00 0.00 0.00 89 1019.7
20260831131750 82 75 4.0 7.0 0.00 0.00 0.00 90 1019.7
20260831131247 81 124 0.0 3.0 0.00 0.00 0.00 92 1019.8
20260831130742 81 131 0.0 0.0 0.00 0.00 0.00 93 1019.9
20260831130237 80 130 0.0 1.0 0.00 0.00 0.00 94 1019.9
20260831125735 80 133 0.0 1.0 0.00 0.00 0.00 94 1019.7
20260831125232 79 90 1.0 5.0 0.00 0.00 0.00 95 1019.7
20260831124726 79 49 4.0 5.0 0.00 0.00 0.00 96 1019.9
20260831124223 78 92 1.0 3.0 0.00 0.00 0.00 96 1019.9
20260831123722 78 103 1.0 3.0 0.00 0.00 0.00 97 1019.7
20260831123221 77 136 2.0 6.0 0.00 0.00 0.00 97 1019.7
20260831122716 76 109 3.0 5.0 0.00 0.00 0.00 96 1019.9
20260831122212 76 58 3.0 3.0 0.00 0.00 0.00 96 1019.5
20260831121710 76 99 2.0 5.0 0.00 0.00 0.00 96 1019.4
20260831121208 76 117 0.0 0.0 0.00 0.00 0.00 96 1019.5
20260831120702 75 126 0.0 2.0 0.00 0.00 0.00 96 1019.6
20260831120157 75 91 0.0 2.0 0.00 0.00 0.00 96 1019.6
20260831115653 75 103 0.0 0.0 0.00 0.00 0.00 96 1019.3
20260831115148 75 105 0.0 2.0 0.00 0.00 0.00 96 1019.3
20260831114648 75 123 0.0 3.0 0.00 0.00 0.00 96 1019.1
20260831114142 75 102 0.0 1.0 0.00 0.00 0.00 96 1019.1
20260831113642 75 117 0.0 1.0 0.00 0.00 0.00 96 1019.2
20260831113137 75 68 0.0 5.0 0.00 0.00 0.00 96 1019.2
20260831112636 75 108 0.0 0.0 0.00 0.00 0.00 96 1019.1
20260831112132 75 2 0.0 1.0 0.00 0.00 0.00 96 1018.9
20260831111628 75 45 0.0 1.0 0.00 0.00 0.00 96 1018.9
20260831111123 75 31 0.0 0.0 0.00 0.00 0.00 96 1019.0
20260831110618 75 32 0.0 0.0 0.00 0.00 0.00 96 1018.9
20260831110109 75 41 0.0 0.0 0.00 0.00 0.00 96 1018.9
20260831105607 75 43 0.0 0.0 0.00 0.00 0.00 96 1019.0
20260831105102 75 39 0.0 1.0 0.00 0.00 0.00 96 1018.9
20260831104558 75 21 0.0 0.0 0.00 0.00 0.00 96 1018.8
20260831104054 75 13 0.0 0.0 0.00 0.00 0.00 96 1019.0
20260831103548 75 16 0.0 0.0 0.00 0.00 0.00 96 1019.0
20260831103044 75 19 0.0 0.0 0.00 0.00 0.00 95 1019.1
20260831102538 75 39 0.0 0.0 0.00 0.00 0.00 95 1019.0
20260831102034 75 6 0.0 0.0 0.00 0.00 0.00 95 1018.8
20260831101529 75 5 0.0 0.0 0.00 0.00 0.00 95 1018.8
20260831101025 75 36 0.0 0.0 0.00 0.00 0.00 95 1018.7
20260831100520 75 36 1.0 1.0 0.00 0.00 0.00 95 1018.8
20260831100016 75 44 0.0 1.0 0.00 0.00 0.00 95 1018.8
20260831095515 75 24 0.0 0.0 0.00 0.00 0.00 95 1018.7
20260831095009 75 40 0.0 0.0 0.00 0.00 0.00 95 1018.8
20260831094505 75 40 0.0 0.0 0.00 0.00 0.00 95 1018.8
20260831094001 75 40 0.0 0.0 0.00 0.00 0.00 95 1018.7
20260831093456 75 39 0.0 0.0 0.00 0.00 0.00 95 1018.9
20260831092953 75 39 0.0 0.0 0.00 0.00 0.00 95 1018.5
20260831092448 75 39 0.0 0.0 0.00 0.00 0.00 95 1018.8
20260831091943 75 39 0.0 0.0 0.00 0.00 0.00 95 1018.6
20260831091438 75 40 0.0 0.0 0.00 0.00 0.00 95 1018.7
20260831090933 75 55 0.0 0.0 0.00 0.00 0.00 95 1018.5
20260831090430 75 35 0.0 0.0 0.00 0.00 0.00 95 1018.6
20260831085925 75 40 0.0 0.0 0.00 0.00 0.00 95 1018.4
20260831085420 75 9 0.0 0.0 0.00 0.00 0.00 95 1018.4
20260831084920 75 15 0.0 0.0 0.00 0.00 0.00 95 1018.4
20260831084416 75 65 0.0 1.0 0.00 0.00 0.00 95 1018.5
20260831083912 75 53 0.0 0.0 0.00 0.00 0.00 95 1018.4
20260831083408 75 51 0.0 0.0 0.00 0.00 0.00 95 1018.5
20260831082906 75 68 0.0 1.0 0.00 0.00 0.00 95 1018.5
20260831082406 75 104 0.0 0.0 0.00 0.00 0.00 95 1018.6
20260831081902 75 104 0.0 0.0 0.00 0.00 0.00 95 1018.7
20260831081357 75 107 0.0 0.0 0.00 0.00 0.00 95 1018.6
20260831080853 75 107 0.0 0.0 0.00 0.00 0.00 95 1018.8
20260831080348 76 107 0.0 0.0 0.00 0.00 0.00 95 1018.6
20260831075843 75 108 0.0 0.0 0.00 0.00 0.00 95 1018.6
20260831075338 76 108 0.0 0.0 0.00 0.00 0.00 95 1018.7
20260831074833 76 107 0.0 0.0 0.00 0.00 0.00 94 1018.6
20260831074332 76 107 0.0 0.0 0.00 0.00 0.00 94 1018.5
20260831073828 76 106 0.0 0.0 0.00 0.00 0.00 94 1018.6
20260831073327 76 108 0.0 0.0 0.00 0.00 0.00 94 1018.5
20260831072822 76 108 0.0 0.0 0.00 0.00 0.00 94 1018.7
20260831072313 76 103 0.0 0.0 0.00 0.00 0.00 94 1018.4
20260831071808 76 93 0.0 1.0 0.00 0.00 0.00 94 1018.6
20260831071302 76 104 0.0 0.0 0.00 0.00 0.00 94 1018.6
20260831070756 76 104 0.0 0.0 0.00 0.00 0.00 94 1018.6
20260831070255 76 104 0.0 0.0 0.00 0.00 0.00 94 1018.7
20260831065755 76 104 0.0 0.0 0.00 0.00 0.00 94 1018.7
20260831065253 76 104 0.0 0.0 0.00 0.00 0.00 94 1018.6
20260831064748 76 104 0.0 0.0 0.00 0.00 0.00 94 1018.8
20260831064243 76 104 0.0 0.0 0.00 0.00 0.00 94 1018.7
20260831063739 76 104 0.0 0.0 0.00 0.00 0.00 94 1018.7
20260831063239 76 104 0.0 0.0 0.00 0.00 0.00 94 1018.7
20260831062734 76 104 0.0 0.0 0.00 0.00 0.00 94 1018.8
20260831062229 76 104 0.0 0.0 0.00 0.00 0.00 94 1019.0
20260831061727 76 103 0.0 0.0 0.00 0.00 0.00 94 1018.8
20260831061222 76 99 0.0 0.0 0.00 0.00 0.00 94 1018.9
20260831060718 76 99 0.0 0.0 0.00 0.00 0.00 94 1019.0
20260831060218 76 99 0.0 0.0 0.00 0.00 0.00 94 1018.8
20260831055712 76 99 0.0 0.0 0.00 0.00 0.00 94 1019.0
20260831055207 76 99 0.0 0.0 0.00 0.00 0.00 93 1019.1
20260831054707 76 99 0.0 0.0 0.00 0.00 0.00 93 1019.2
20260831054202 76 98 0.0 0.0 0.00 0.00 0.00 93 1019.1
20260831053656 76 98 0.0 0.0 0.00 0.00 0.00 93 1019.1
20260831053155 76 98 0.0 0.0 0.00 0.00 0.00 93 1019.2
20260831052654 76 97 0.0 0.0 0.00 0.00 0.00 93 1019.3
20260831052154 76 97 0.0 0.0 0.00 0.00 0.00 93 1019.3
20260831051652 76 97 0.0 0.0 0.00 0.00 0.00 93 1019.4
20260831051150 76 96 0.0 0.0 0.00 0.00 0.00 93 1019.3
20260831050645 76 93 0.0 0.0 0.00 0.00 0.00 93 1019.4
20260831050144 77 89 0.0 0.0 0.00 0.00 0.00 93 1019.3
20260831045644 77 87 0.0 0.0 0.00 0.00 0.00 93 1019.2
20260831045139 77 201 0.0 0.0 0.00 0.00 0.00 93 1019.1
20260831044634 77 235 0.0 0.0 0.00 0.00 0.00 93 1019.2
20260831044129 77 230 0.0 0.0 0.00 0.00 0.00 93 1019.2
20260831043625 77 218 0.0 0.0 0.00 0.00 0.00 93 1019.2
20260831043120 77 214 0.0 1.0 0.00 0.00 0.00 93 1019.2
20260831042614 77 184 0.0 0.0 0.00 0.00 0.00 92 1019.4
20260831042109 77 178 0.0 0.0 0.00 0.00 0.00 92 1019.3
20260831041604 77 159 0.0 1.0 0.00 0.00 0.00 92 1019.4
20260831041103 77 132 0.0 0.0 0.00 0.00 0.00 92 1019.6
20260831040558 77 132 0.0 0.0 0.00 0.00 0.00 92 1019.4
20260831040057 77 131 0.0 0.0 0.00 0.00 0.00 92 1019.7
20260831035555 77 129 0.0 0.0 0.00 0.00 0.00 92 1019.8
20260831035051 77 127 0.0 0.0 0.00 0.00 0.00 92 1019.7
20260831034550 77 125 0.0 0.0 0.00 0.00 0.00 92 1019.8
20260831034046 77 125 0.0 0.0 0.00 0.00 0.00 92 1019.8
20260831033541 77 124 0.0 0.0 0.00 0.00 0.00 92 1019.9
20260831033036 77 124 0.0 0.0 0.00 0.00 0.00 92 1019.9
20260831032536 77 124 0.0 0.0 0.00 0.00 0.00 92 1019.7
20260831032032 77 124 0.0 0.0 0.00 0.00 0.00 92 1019.9
20260831031531 77 124 0.0 0.0 0.00 0.00 0.00 91 1019.8
20260831031030 77 123 0.0 0.0 0.00 0.00 0.00 91 1020.1
20260831030529 77 123 0.0 0.0 0.00 0.00 0.00 91 1020.0
20260831030023 78 122 0.0 0.0 0.00 0.00 0.00 91 1020.1
20260831025521 78 121 0.0 0.0 0.00 0.00 0.00 91 1020.0
20260831025017 78 120 0.0 0.0 0.00 0.00 0.00 91 1020.0
20260831024513 78 119 0.0 0.0 0.00 0.00 0.00 91 1020.0
20260831024012 78 119 0.0 0.0 0.00 0.00 0.00 91 1020.0
20260831023510 78 119 0.0 0.0 0.00 0.00 0.00 91 1019.9
20260831023005 78 119 0.0 0.0 0.00 0.00 0.00 91 1019.9
20260831022504 78 119 0.0 0.0 0.00 0.00 0.00 91 1019.9
20260831021959 78 119 0.0 0.0 0.00 0.00 0.00 90 1020.0
20260831021458 78 118 0.0 0.0 0.00 0.00 0.00 90 1020.1
20260831020954 78 173 0.0 2.0 0.00 0.00 0.00 90 1020.0
20260831020454 78 145 2.0 2.0 0.00 0.00 0.00 90 1019.9
20260831015949 78 180 0.0 0.0 0.00 0.00 0.00 90 1020.0
20260831015445 79 217 0.0 0.0 0.00 0.00 0.00 90 1020.2
20260831014946 79 213 0.0 0.0 0.00 0.00 0.00 90 1020.1